User: anonymous   Login
Location: Unspecified
(35.6961°N, 0.0000°E)
Time: 17:00:37
(UTC+00:00)
Language:

A-11 Canister half - Orbit

View from above orbital plane
View from above orbital plane
View from above satellite
View from above satellite

Ground track
Ground track

The orbit data is extracted from the following two-line orbital elements,

1    53U 60009E   19140.10743835 -.00000041  00000-0  43694-3 0  9994
2    53  47.2784  35.0631 0100121 356.2027   3.7994 12.17227171620539
Epoch (UTC): 20 May 2019 02:34:42
Eccentricity: 0.0100121
inclination: 47.2784°
perigee height: 1525 km
apogee height: 1684 km
right ascension of ascending node: 35.0631°
argument of perigee: 356.2027°
revolutions per day: 12.17227171
mean anomaly at epoch: 3.7994°
orbit number at epoch: 62053

The dashed part of the orbit path shows where the satellite is in the earth's shadow,  

DLR